Regional Weather Roundup
Issued by NWS

Home | Current Version | Previous Version | Graphics & Text | Print | Product List | Glossary On
Versions: 1 2 3 4 5 6 7 8 9 10 11 12 13 14 15 16 17 18 19 20 21 22 23 24 25 26 27 28 29 30 31 32 33 34 35 36 37 38 39 40 41 42 43 44 45 46 47 48 49 50
000
ASUS43 KTOP 211459
RWRKS

WEATHER ROUNDUP FOR KANSAS
NATIONAL WEATHER SERVICE GOODLAND KS
1000 AM CDT SAT OCT 21 2017

NOTE:  "FAIR" INDICATES FEW OR NO CLOUDS BELOW 12,000 FEET WITH NO
SIGNIFICANT WEATHER AND/OR OBSTRUCTIONS TO VISIBILITY.

KSZ001>006-013>018-027>032-041>047-211600-
NORTHWEST KANSAS

CITY           SKY/WX    TMP DP  RH WIND       PRES   REMARKS
GOODLAND       CLOUDY    46  35  65 N26G40    29.84R
HAYS           CLOUDY    62  41  46 NW16      29.75R
HILL CITY      MOSUNNY   62  28  27 NW28G45   29.74R
RUSSELL        CLOUDY    67  62  84 W16G26    29.70R
$$

KSZ061>065-074>080-084>089-211600-
SOUTHWEST KANSAS

CITY           SKY/WX    TMP DP  RH WIND       PRES   REMARKS
DODGE CITY     CLOUDY    61  44  53 NW15G28   29.78R
ELKHART          N/A     56  36  47 N15         N/A
GARDEN CITY    CLOUDY    58  31  35 N18       29.81R
LIBERAL        PTSUNNY   60  42  51 N24G30    29.80R
$$

KSZ066>073-081>083-090>101-211600-
SOUTHEAST KANSAS

CITY           SKY/WX    TMP DP  RH WIND       PRES   REMARKS
CHANUTE        CLOUDY    68  62  81 S17       29.87R
COFFEYVILLE    CLOUDY    71  64  78 S18G31    29.87S
HUTCHINSON     CLOUDY    71  64  78 S22G33    29.74R
MEDICINE LODGE   N/A     69  61  75 S17G26    29.75R
NEWTON         CLOUDY    69  63  81 S28G37    29.76R
PARSONS        CLOUDY    70  63  78 S13G22    29.88S
WICHITA INTL   CLOUDY    70  65  84 S22G30    29.78R
WICHITA JABRA  CLOUDY    69  65  86 S17G31    29.78R
WICHITA MCCONL PTSUNNY   70  63  79 S23G32    29.78R
WINFIELD       CLOUDY    70  65  84 S20G31    29.82R
$$

KSZ007>012-019>026-033>040-048>060-102>105-211600-
NORTHEAST KANSAS

CITY           SKY/WX    TMP DP  RH WIND       PRES   REMARKS
CONCORDIA      LGT RAIN  72  63  73 S21G39    29.66R
EMPORIA        CLOUDY    67  61  81 S25G32    29.80R
LAWRENCE       CLOUDY    68  62  81 SE20G29   29.82R
MANHATTAN      PTSUNNY   72  63  73 S18G33    29.70R
OLATHE IND     CLOUDY    67  61  81 S20G33    29.86R
OLATHE EXE     CLOUDY    65  60  84 S18G28    29.86R
SALINA         CLOUDY    73  64  73 S31G37    29.71R
TOPEKA BILLARD MOSUNNY   71  63  75 S23G32    29.76S
TOPEKA FORBES  CLOUDY    70  63  78 S21G33    29.78S
$$




USA.gov is the U.S. government's official web portal to all federal, state and local government web resources and services.